K3XY-2 Weather Reports


Display with metric or nautical units.
time (UTC)temp
F
wind
direction
speed
MPH
gust
MPH
rain 1hr
in
rain 24hr
in
rain mn
in
humidity
%
barometer
mb
20260507003909 64 0 0.0 0.0 0.00 0.22 0.22 87 1007.7
20260507002909 65 0 0.0 0.0 0.00 0.22 0.22 87 1007.2
20260507001910 65 0 0.0 0.0 0.00 0.22 0.22 87 1007.1
20260507000909 65 0 0.0 0.0 0.00 0.22 0.22 86 1007.1
20260506235909 65 0 0.0 0.0 0.00 0.22 0.22 86 1007.0
20260506234909 65 0 0.0 0.0 0.00 0.22 0.22 86 1006.9
20260506233909 65 0 0.0 0.0 0.00 0.22 0.22 86 1006.9
20260506232909 65 0 0.0 0.0 0.00 0.22 0.22 86 1006.9
20260506231910 66 0 0.0 0.0 0.00 0.22 0.22 86 1006.9
20260506230909 66 0 0.0 0.0 0.00 0.22 0.22 85 1006.7
20260506225909 66 0 0.0 0.0 0.00 0.22 0.22 85 1006.8
20260506224909 66 0 0.0 0.0 0.00 0.22 0.22 85 1006.9
20260506223909 66 0 0.0 0.0 0.00 0.22 0.22 86 1006.7
20260506222910 66 0 0.0 0.0 0.00 0.22 0.22 86 1006.7
20260506221909 66 0 0.0 0.0 0.00 0.22 0.22 86 1006.7
20260506220909 66 0 0.0 0.0 0.00 0.22 0.22 85 1006.7
20260506215909 66 0 0.0 0.0 0.00 0.22 0.22 85 1006.6
20260506214909 66 0 0.0 0.0 0.00 0.22 0.22 84 1006.7
20260506213909 66 0 0.0 0.0 0.00 0.22 0.22 85 1006.5
20260506212910 66 0 0.0 0.0 0.00 0.22 0.22 85 1006.4
20260506211909 66 0 0.0 0.0 0.00 0.22 0.22 85 1006.3
20260506210909 66 0 0.0 0.0 0.00 0.22 0.22 87 1006.2
20260506205909 65 0 0.0 0.0 0.00 0.22 0.22 87 1006.2
20260506204909 65 0 0.0 0.0 0.00 0.22 0.22 87 1006.2
20260506203909 65 0 0.0 0.0 0.00 0.22 0.22 87 1006.3
20260506202909 65 0 0.0 0.0 0.00 0.22 0.22 88 1006.2
20260506201909 64 0 0.0 0.0 0.00 0.22 0.22 88 1006.1
20260506200909 64 0 0.0 0.0 0.00 0.22 0.22 89 1006.1
20260506195909 63 0 0.0 0.0 0.00 0.22 0.22 90 1006.3
20260506194909 63 0 0.0 0.0 0.00 0.22 0.22 91 1006.3
20260506193909 63 0 0.0 0.0 0.00 0.22 0.22 91 1006.5
20260506192909 62 0 0.0 0.0 0.00 0.22 0.22 91 1006.7
20260506191909 62 0 0.0 0.0 0.00 0.22 0.22 92 1006.6
20260506190909 61 0 0.0 0.0 0.00 0.22 0.22 91 1006.9
20260506185909 61 0 0.0 0.0 0.00 0.22 0.22 91 1006.9
20260506184909 61 0 0.0 0.0 0.00 0.22 0.22 91 1006.9
20260506183908 61 0 0.0 0.0 0.00 0.22 0.22 91 1007.0
20260506182909 61 0 0.0 0.0 0.00 0.22 0.22 91 1007.2
20260506181909 61 0 0.0 0.0 0.00 0.22 0.22 91 1007.4
20260506180909 61 0 0.0 0.0 0.00 0.22 0.22 91 1007.4
20260506175909 61 0 0.0 0.0 0.00 0.22 0.22 91 1007.4
20260506174909 60 0 0.0 0.0 0.00 0.22 0.22 90 1007.3
20260506173908 60 0 0.0 0.0 0.00 0.22 0.22 90 1007.4
20260506172909 61 0 0.0 0.0 0.01 0.22 0.22 90 1007.4
20260506171909 61 0 0.0 0.0 0.01 0.22 0.22 91 1007.3
20260506170909 61 0 0.0 0.0 0.02 0.22 0.22 91 1007.4
20260506165909 61 0 0.0 0.0 0.02 0.22 0.22 91 1007.6
20260506164909 61 0 0.0 0.0 0.04 0.22 0.22 91 1007.3
20260506163908 61 0 0.0 0.0 0.06 0.22 0.22 91 1007.3
20260506162909 61 0 0.0 0.0 0.07 0.21 0.21 91 1007.5
20260506161909 61 0 0.0 0.0 0.09 0.21 0.21 91 1007.6
20260506160909 60 0 0.0 0.0 0.10 0.20 0.20 91 1007.4
20260506155909 60 0 0.0 0.0 0.12 0.20 0.20 90 1008.0
20260506154909 60 0 0.0 0.0 0.12 0.18 0.18 90 1008.4
20260506153908 60 0 0.0 0.0 0.11 0.16 0.16 89 1008.6
20260506152909 60 0 0.0 0.0 0.10 0.14 0.14 89 1008.7
20260506151909 61 0 0.0 0.0 0.09 0.12 0.12 88 1008.7
20260506150909 61 0 0.0 0.0 0.09 0.10 0.10 88 1008.6
20260506145909 61 0 0.0 0.0 0.08 0.08 0.08 88 1008.4
20260506144909 62 0 0.0 0.0 0.06 0.06 0.06 87 1008.6
20260506143908 62 0 0.0 0.0 0.05 0.05 0.05 86 1008.6
20260506142908 62 0 0.0 0.0 0.04 0.04 0.04 85 1008.4
20260506141909 63 0 0.0 0.0 0.03 0.03 0.03 83 1008.5
20260506140909 63 0 0.0 0.0 0.01 0.01 0.01 82 1008.5
20260506135909 64 0 0.0 0.0 0.00 0.00 0.00 80 1008.3
20260506134909 64 0 0.0 0.0 0.00 0.00 0.00 80 1008.4
20260506133908 64 0 0.0 0.0 0.00 0.00 0.00 81 1008.3
20260506132908 64 0 0.0 0.0 0.00 0.00 0.00 80 1008.3
20260506131909 64 0 0.0 0.0 0.00 0.00 0.00 79 1008.5
20260506130909 64 0 0.0 0.0 0.00 0.00 0.00 78 1008.4
20260506125909 65 0 0.0 0.0 0.00 0.00 0.00 77 1008.4
20260506124908 65 0 0.0 0.0 0.00 0.00 0.00 75 1008.6
20260506123908 65 0 0.0 0.0 0.00 0.00 0.00 75 1008.6
20260506122908 65 0 0.0 0.0 0.00 0.00 0.00 75 1008.4
20260506121909 65 0 0.0 0.0 0.00 0.00 0.00 75 1008.5
20260506120909 65 0 0.0 0.0 0.00 0.00 0.00 75 1008.3
20260506115909 65 0 0.0 0.0 0.00 0.00 0.00 76 1008.2
20260506114908 64 0 0.0 0.0 0.00 0.00 0.00 76 1008.0
20260506113908 64 0 0.0 0.0 0.00 0.00 0.00 76 1008.0
20260506112908 64 0 0.0 0.0 0.00 0.00 0.00 76 1008.0
20260506111909 64 0 0.0 0.0 0.00 0.00 0.00 76 1008.0
20260506110909 64 0 0.0 0.0 0.00 0.00 0.00 76 1008.0
20260506105909 64 0 0.0 0.0 0.00 0.00 0.00 75 1008.0
20260506104908 64 0 0.0 0.0 0.00 0.00 0.00 76 1007.9
20260506103908 64 0 0.0 0.0 0.00 0.00 0.00 75 1007.8
20260506102908 64 0 0.0 0.0 0.00 0.00 0.00 75 1007.7
20260506101909 64 0 0.0 0.0 0.00 0.00 0.00 75 1007.6
20260506100909 65 0 0.0 0.0 0.00 0.00 0.00 74 1007.6
20260506095909 65 0 0.0 0.0 0.00 0.00 0.00 74 1007.6
20260506094908 65 0 0.0 0.0 0.00 0.00 0.00 74 1007.6
20260506093908 65 0 0.0 0.0 0.00 0.00 0.00 74 1007.6
20260506092908 65 0 0.0 0.0 0.00 0.00 0.00 74 1007.6
20260506091909 65 0 0.0 0.0 0.00 0.00 0.00 73 1007.6
20260506090909 65 0 0.0 0.0 0.00 0.00 0.00 73 1007.6
20260506085909 65 0 0.0 0.0 0.00 0.00 0.00 73 1007.7
20260506084908 65 0 0.0 0.0 0.00 0.00 0.00 72 1007.7
20260506083908 66 0 0.0 0.0 0.00 0.00 0.00 72 1007.8
20260506082908 66 0 0.0 0.0 0.00 0.00 0.00 72 1007.7
20260506081908 66 0 0.0 0.0 0.00 0.00 0.00 72 1007.7
20260506080909 66 0 0.0 0.0 0.00 0.00 0.00 72 1007.8
20260506072908 66 0 0.0 0.0 0.00 0.00 0.00 71 1008.0
20260506071908 66 0 0.0 0.0 0.00 0.00 0.00 70 1008.0
20260506070908 66 0 0.0 0.0 0.00 0.00 0.00 69 1008.1
20260506061908 67 0 0.0 0.0 0.00 0.00 0.00 65 1008.6
20260506060908 67 0 0.0 0.0 0.00 0.00 0.00 64 1008.5
20260506050908 67 0 0.0 0.0 0.00 0.00 0.00 62 1008.9
20260506044909 67 0 0.0 0.0 0.00 0.00 0.00 62 1008.9
20260506043908 67 0 0.0 0.0 0.00 0.00 0.00 62 1009.0
20260506042908 67 0 0.0 0.0 0.00 0.00 0.00 61 1009.0
20260506041908 68 0 0.0 0.0 0.00 0.00 0.00 60 1009.0
20260506040908 68 0 0.0 0.0 0.00 0.00 0.00 60 1008.9
20260506035908 68 0 0.0 0.0 0.00 0.00 0.00 59 1008.9
20260506034908 68 0 0.0 0.0 0.00 0.00 0.00 59 1008.9
20260506033909 68 0 0.0 0.0 0.00 0.00 0.00 59 1008.8
20260506032908 68 0 0.0 0.0 0.00 0.00 0.00 59 1008.7
20260506031908 68 0 0.0 0.0 0.00 0.00 0.00 58 1008.7
20260506030908 68 0 0.0 0.0 0.00 0.00 0.00 58 1008.8
20260506025908 69 0 0.0 0.0 0.00 0.00 0.00 57 1008.9
20260506024909 69 0 0.0 0.0 0.00 0.00 0.00 56 1008.8
20260506023908 69 0 0.0 0.0 0.00 0.00 0.00 56 1008.9
20260506022908 70 0 0.0 0.0 0.00 0.00 0.00 55 1008.9
20260506021908 70 0 0.0 0.0 0.00 0.00 0.00 54 1008.9
20260506020908 71 0 0.0 0.0 0.00 0.00 0.00 53 1008.8
20260506015908 71 0 0.0 0.0 0.00 0.00 0.00 52 1008.9
20260506014908 71 0 0.0 0.0 0.00 0.00 0.00 52 1008.8
20260506013908 72 0 0.0 0.0 0.00 0.00 0.00 51 1008.7
20260506012908 72 0 0.0 0.0 0.00 0.00 0.00 50 1008.6
20260506011907 72 0 0.0 0.0 0.00 0.00 0.00 49 1008.5
20260506010908 73 0 0.0 0.0 0.00 0.00 0.00 49 1008.4
20260506005908 73 0 0.0 0.0 0.00 0.00 0.00 48 1008.3
20260506004908 74 0 0.0 0.0 0.00 0.00 0.00 47 1008.2